SL-12 DEB, 44560

Orbit data source: Space-Track

SL-12 DEB, 44560 is space debris in HEO originally from a launch on Thu, 02 Sep 2010 UTC launched from the Tyuratam Missile And Space Complex (TTMTR). Debris objects in space refer to the collection of defunct objects orbiting the Earth. Examples of debris include non-operational satellites, rocket bodies, and fragments generated from explosions, collisions, or faulty payload assembly.

Loading next visibility...
Identifier
44560, 2010-041AF
Orbit
HEO
Country
Flag of CISCIS
Related business
Manufacturer
RKKE
Mission
Spacecraft
Bus & Motor
Unknown
Mass
Unknown
Launch date (UTC)
2010-09-02 (15 years ago)
Launch vehicle
Unknown
Launch site
Tyuratam Missile And Space Complex (TTMTR)
Object type
Payload
Rocket body
Debris
Shape & HBR
Unknown shape, 0.7 m
Radar Cross Section
Medium (>0.1 m² and <1 m²)

Expand to show TLE details & history
Last TLE update: 3 days ago

TLE from 3 days ago
0 SL-12 DEB
1 44560U 10041AF  25285.54061180  .00000427  00000-0  16717-2 0  9999
2 44560  65.2759 127.5450 5447054 281.3829  24.8184  4.57226482 99354
Epoch: 2025-10-12T12:58Z
TLE epoch observation values (Epoch: 2025-10-12T12:58:28.859Z)
Latitude
-0.00009°
Longitude
-88.43165°
Altitude
3,368.593 km
Speed
7.471 km/s
True Right ascension
08h 30m 10s
True Declination
0° 00' 00"
Sunlit
Object was in daylight at epoch
Visualization orbit readout
Latitude
Unknown
Longitude
Unknown
Altitude
Unknown
Speed
Unknown
Apparent Right ascension
Unknown
Apparent Declination
Unknown
Sunlit
N/A
Visualization observer readout
Local Sidereal Time
12:46:27
Azimuth
Unknown
Elevation
Unknown
Doppler factor
Unknown
Orbital elements
Apogee altitude
17,306.174 km
Perigee altitude
602.701 km
Semi-major axis
15,332.575 km
Eccentricity
0.54471
Inclination
65.2759°
RAAN
127.545°
Arg. of periapsis
281.3829°
True anomaly
78.7332°
Mean anomaly
24.8184°
Eccentric anomaly
48.01801°
Mean motion
1.1432 °/min
Orbital period
314.91 mins
BSTAR
0.0016717
Loading maneuver chart data...
Computing Atmospheric mass density...
Loading historical data...
Loading historical data...
Loading historical data...
Loading historical data...
Loading historical data...
Loading historical data...
Loading historical data...

Documentation

Showing up to 5 results
|